College Station, TX

11:02 AM CST on December 04, 2016 (GMT -0600)
Easterwood

Weather History for KCLL - December, 2014

Change the Weather History Date:

Wednesday, December 31, 2014

  Actual Average Record
Temperature  
Mean Temperature 41 °F 51 °F  
Max Temperature 44 °F 61 °F 82 °F (1951)
Min Temperature 38 °F 41 °F 16 °F (1927)
Degree Days  
Heating Degree Days 24 15  
Month to date heating degree days 314 412  
Since 1 July heating degree days 609 636  
Cooling Degree Days 0 0  
Month to date cooling degree days 10 16  
Year to date cooling degree days 2943 3089  
Moisture  
Dew Point 31 °F    
Average Humidity 69    
Maximum Humidity 76    
Minimum Humidity 62    
Precipitation  
Precipitation T in 0.10 in 1.73 in (1978)
Month to date precipitation 2.57 3.23  
Year to date precipitation 39.61 40.06  
Sea Level Pressure  
Sea Level Pressure 30.45 in    
Wind  
Wind Speed 12 mph (NNE)    
Max Wind Speed 18 mph    
Max Gust Speed 22 mph    
Visibility 10 miles    
Events      
T = Trace of Precipitation, MM = Missing Value Source: NWS Daily Summary

Daily Weather History Graph

Daily Weather History Graph

Search for Another Location

Airport or City:

Trip Planner

Search our weather history database for the weather conditions in past years. The results will help you decide how hot, cold, wet, or windy it might be!

Date:

Astronomy

Dec. 31, 2014 Rise Set
Actual Time 7:22 AM CST 5:34 PM CST
Civil Twilight 6:55 AM CST 6:01 PM CST
Nautical Twilight 6:25 AM CST 6:31 PM CST
Astronomical Twilight 5:56 AM CST 7:00 PM CST
Moon 2:17 PM CST (12/31) 3:00 AM CST (12/31)
Length of Visible Light 11h 05m
Length of Day
10h 12m
Waxing Gibbous, 80% of the Moon is Illuminated
Dec 31
Waxing Gibbous
Jan 4
Full
Jan 13
Last Quarter
Jan 20
New
Jan 26
First Quarter

Hourly Weather History & Observations

Time (CST) Temp. Windchill Dew Point Humidity Pressure Visibility Wind Dir Wind Speed Gust Speed Precip Events Conditions
12:53 AM 39.0 °F 34.0 °F 32.0 °F 76% 30.46 in 10.0 mi NNW 6.9 mph - N/A   Overcast
1:53 AM 39.0 °F 33.4 °F 32.0 °F 76% 30.46 in 10.0 mi North 8.1 mph - N/A   Overcast
2:53 AM 39.9 °F 33.4 °F 32.0 °F 73% 30.46 in 10.0 mi NNE 10.4 mph - N/A   Overcast
3:53 AM 39.9 °F 32.1 °F 30.9 °F 70% 30.47 in 10.0 mi NE 13.8 mph - N/A   Overcast
4:53 AM 39.0 °F 30.3 °F 30.9 °F 73% 30.46 in 10.0 mi NNE 16.1 mph - N/A   Overcast
5:53 AM 39.0 °F 31.8 °F 30.9 °F 73% 30.49 in 10.0 mi NNE 11.5 mph - N/A   Overcast
6:53 AM 39.0 °F 31.8 °F 30.0 °F 70% 30.51 in 10.0 mi NNE 11.5 mph - N/A   Overcast
7:53 AM 37.9 °F 29.6 °F 30.0 °F 73% 30.52 in 10.0 mi NNE 13.8 mph - N/A   Overcast
8:53 AM 39.0 °F 31.0 °F 30.0 °F 70% 30.53 in 10.0 mi NNE 13.8 mph - N/A   Overcast
9:53 AM 39.9 °F 31.8 °F 30.9 °F 70% 30.54 in 10.0 mi NNE 15.0 mph - N/A   Overcast
10:53 AM 41.0 °F 34.3 °F 30.0 °F 65% 30.53 in 10.0 mi NNE 11.5 mph - N/A   Overcast
11:53 AM 41.0 °F 33.1 °F 30.9 °F 67% 30.50 in 10.0 mi NNE 15.0 mph 21.9 mph N/A   Overcast
12:53 PM 43.0 °F 36.8 °F 30.9 °F 62% 30.45 in 10.0 mi North 11.5 mph - N/A   Overcast
1:53 PM 43.0 °F 37.2 °F 30.9 °F 62% 30.42 in 10.0 mi NNE 10.4 mph - N/A   Overcast
2:53 PM 43.0 °F 36.8 °F 32.0 °F 65% 30.43 in 10.0 mi North 11.5 mph - N/A   Overcast
3:53 PM 43.0 °F 36.8 °F 30.9 °F 62% 30.40 in 10.0 mi North 11.5 mph - N/A   Overcast
4:53 PM 43.0 °F 36.8 °F 30.9 °F 62% 30.41 in 10.0 mi NNE 11.5 mph - N/A   Overcast
5:53 PM 42.1 °F 35.7 °F 30.9 °F 65% 30.40 in 10.0 mi NNE 11.5 mph - N/A   Overcast
6:53 PM 41.0 °F 34.7 °F 30.9 °F 67% 30.42 in 10.0 mi North 10.4 mph - N/A   Overcast
7:53 PM 41.0 °F 33.5 °F 30.0 °F 65% 30.42 in 10.0 mi NNE 13.8 mph - N/A   Overcast
8:53 PM 41.0 °F 33.9 °F 30.9 °F 67% 30.43 in 10.0 mi North 12.7 mph - N/A   Overcast
9:53 PM 41.0 °F 34.7 °F 30.9 °F 67% 30.43 in 10.0 mi NNE 10.4 mph - N/A   Overcast
10:53 PM 41.0 °F 33.9 °F 30.9 °F 67% 30.40 in 10.0 mi NE 12.7 mph - N/A   Overcast
11:53 PM 41.0 °F 34.7 °F 32.0 °F 70% 30.38 in 10.0 mi NNE 10.4 mph - 0.00 in   Overcast